Tracking 23610 objects as of 20-Sep-2021
HD Live streaming from Space Station
objects crossing your sky now

STARLINK-2463

Track STARLINK-2463 now!
10-day predictions
STARLINK-2463 is classified as:


NORAD ID: 48122
Int'l Code: 2021-027AG
Perigee: 554.2 km
Apogee: 554.5 km
Inclination: 53.1 °
Period: 95.6 minutes
Semi major axis: 6925 km
RCS: Unknown
Launch date: April 7, 2021
Source: United States (US)
Launch site: AIR FORCE EASTERN TEST RANGE (AFETR)
aabbcc
Your satellite tracking list
Your tracking list is empty




NASA's NSSDC Master Catalog

Two Line Element Set (TLE):
1 48122U 21027AG  21263.04095742  .00000761  00000-0  69918-4 0  9995
2 48122  53.0548 281.3638 0000247 110.3263 249.7752 15.06404280 26301
Source of the keplerian elements: AFSPC